Flag for USA

Past Weather in Fairbanks, Alaska, USA — January 2018

Now
53 °F

Sunny.


Feels Like: 52 °F
Forecast: 54 / 31 °F
Wind: 5 mph from Southwest

Location: Wainwright U. S. Army Airfield
Current Time: Sep 21, 2020 at 8:10:35 pm
Latest Report: Sep 21, 2020 at 6:58 pm
Visibility: 10 mi
Pressure29.57 "Hg
Humidity: 50%
Dew Point: 34 °F
Location of FairbanksLocation

January 2018 Weather in Fairbanks — Graph

°F

High & Low Weather Summary for January 2018

 TemperatureHumidityPressure
High34 °F (Jan 17, 1:22 am)100% (Jan 16, 7:01 pm)30.73 "Hg (Jan 16, 7:01 pm)
Low-34 °F (Jan 29, 7:58 am)60% (Jan 9, 1:58 pm)29.26 "Hg (Jan 16, 7:58 pm)
Average-5 °F82%29.95 "Hg
* Reported Jan 1 12:58 am — Jan 31 11:58 pm, Fairbanks. Weather by CustomWeather, © 2020

Note: Actual official high and low records may vary slightly from our data, if they occured in-between our weather recording intervals... More about our weather records

Fairbanks Weather History for January 1, 2018

Scroll right to see more
 ConditionsComfort  
Time TempWeatherWind HumidityBarometerVisibility
12:58 am
Mon, Jan 1
0 °FPassing clouds.No wind84%29.75 "Hg10 mi
1:58 am-1 °FPassing clouds.No wind83%29.75 "Hg9 mi
2:58 am1 °FPassing clouds.No wind85%29.72 "Hg10 mi
3:58 am0 °FClear.No wind84%29.71 "Hg9 mi
4:58 am0 °FClear.No wind85%29.72 "Hg9 mi
5:58 am-3 °FClear.No wind84%29.71 "Hg9 mi
6:58 am-3 °FClear.No wind84%29.71 "Hg9 mi
7:58 am-7 °FClear.No wind82%29.73 "Hg8 mi
8:58 am-8 °FClear.No wind81%29.74 "Hg8 mi
9:58 am-9 °FClear.No wind82%29.75 "Hg9 mi
10:58 am-10 °FSunny.No wind80%29.74 "Hg8 mi
11:58 am-11 °FSunny.No wind80%29.75 "Hg7 mi
12:58 pm-9 °FSunny.No wind81%29.75 "Hg7 mi
1:58 pm-10 °FSunny.No wind80%29.70 "Hg7 mi
2:58 pm-8 °FClear.5 mph81%29.69 "Hg9 mi
3:58 pm-10 °FClear.No wind80%29.66 "Hg10 mi
4:58 pm-8 °FClear.No wind80%29.62 "Hg9 mi
5:58 pm-5 °FPassing clouds.No wind82%29.57 "Hg10 mi
6:58 pm0 °FOvercast.No wind83%29.53 "Hg9 mi
7:58 pm2 °FOvercast.No wind84%29.49 "Hg10 mi
8:58 pm4 °FOvercast.No wind86%29.44 "Hg10 mi
9:58 pm9 °FOvercast.3 mph86%29.39 "Hg10 mi
10:58 pm10 °FMostly cloudy.No wind87%29.34 "Hg10 mi
11:58 pm10 °FPassing clouds.No wind87%29.33 "Hg10 mi
Weather by CustomWeather, © 2020

See weather overview